Regional Weather Roundup
Issued by NWS

Home | Current Version | Previous Version | Text Only | Print | Product List | Glossary On
Versions: 1 2 3 4 5 6 7 8 9 10 11 12 13 14 15 16 17 18 19 20 21 22 23 24 25 26 27 28 29 30 31 32 33 34 35 36 37 38 39 40 41 42 43 44 45 46 47 48 49 50
000
ASCA44 KEWX 211020
RWRMX

LATIN AMERICA AND CARIBBEAN REGIONAL WEATHER ROUNDUP
NATIONAL WEATHER SERVICE AUSTIN/SAN ANTONIO TX
500 AM CDT MON APR 21 2014

NOTE: "FAIR" INDICATED FEW OR NO CLOUDS BELOW 12,000 FEET WITH NO
SIGNIFICANT WEATHER AND/OR OBSTRUCTIONS TO VISIBILITY.

BAJA CALIFORNIA

CITY           SKY/WX    TMP DP  RH WIND       PRES   REMARKS
TIJUANA        CLOUDY    57  54  88 N3        30.06F FOG

NORTHWESTERN MEXICO

CITY           SKY/WX    TMP DP  RH WIND       PRES   REMARKS
DURANGO        CLEAR     57  41  54 SW2       30.25
HERMOSILLO     CLEAR     64  41  42 CALM      29.97

NORTHEASTERN MEXICO

CITY           SKY/WX    TMP DP  RH WIND       PRES   REMARKS
MONTERREY      CLOUDY    68  66  94 CALM      29.99S
NUEVO LAREDO   CLOUDY    72  66  83 SE5       30.01
REYNOSA        CLOUDY    68  64  88 SE6       29.99

WESTERN MEXICO

CITY           SKY/WX    TMP DP  RH WIND       PRES   REMARKS
DEL BAJIO      PTCLDY    63  46  55 E5        30.27S
GUADALAJARA    CLEAR     64  43  45 W3        30.18
MAZATLAN       CLEAR     61  57  88 NW9       29.89S
P. VALLARTA    PTCLDY    72  68  88 CALM      29.93S
ZACATECAS      CLEAR     52  32  46 CALM      30.31S

CENTRAL MEXICO

CITY           SKY/WX    TMP DP  RH WIND       PRES   REMARKS
MEXICO CITY    CLEAR     59  37  44 NE3       30.34F
MORELIA        CLEAR     52  50  93 CALM      30.25
QUERETARO      MOCLDY    59  43  55 CALM        N/A
S. LUIS POTOSI PTCLDY    54  46  76 CALM      30.25S
TAMPICO        MOCLDY    73  70  88 CALM      29.99
TOLUCA         MOCLDY    45  37  76 CALM      30.41F

SOUTHERN MEXICO

CITY           SKY/WX    TMP DP  RH WIND       PRES   REMARKS
ACAPULCO       PTCLDY    79  72  78 CALM      29.89F
VERACRUZ       CLEAR     72  68  88 CALM      29.99

YUCATAN PENINSULA

CITY           SKY/WX    TMP DP  RH WIND       PRES   REMARKS
CANCUN         CLEAR     61  59  94 NW6       30.02F
CD. DEL CARMEN PTCLDY    77  70  78 E12       29.94
COZUMEL        CLEAR     61  61 100 CALM      30.01F
MERIDA         PTCLDY    72  61  68 E8        30.02S
MINATITLAN     CLOUDY    77  66  69 NW12      29.97
TAPACHULA      CLEAR     79  73  83 CALM      29.88F

CENTRAL AMERICA

CITY           SKY/WX    TMP DP  RH WIND       PRES   REMARKS
BELIZE CITY    PTCLDY    79  73  83 E6        29.97
MANAGUA        MOSUNNY   77  70  78 E9        29.86S

CARIBBEAN

CITY           SKY/WX    TMP DP  RH WIND       PRES   REMARKS
ARUBA          PTCLDY    79  73  83 E18       29.89R
KINGSTON       PTCLDY   N/A N/A N/A VRB2      29.92S
NASSAU         PTCLDY    73  66  78 MISG      29.96R
SAN JUAN       PTCLDY    75  70  83 CALM      30.01R
SANTO DOMINGO  PTCLDY    72  70  94 NE7       29.97S
ST. CROIX      PTCLDY    79  70  73 E10       30.01S
ST. KITTS      PTCLDY    77  72  83 E14       30.03
ST. MAARTEN    PTCLDY    77  70  78 E9        30.00S
ST. THOMAS     MOCLDY    79  72  78 SE14      30.01R

$$




USA.gov is the U.S. government's official web portal to all federal, state and local government web resources and services.